Home   Weather   Sarpsborg   Past weeks

Flag for Norway Past Weather in Sarpsborg, Norway — Yesterday and Last 2 Weeks

Now
32 °F

Light snow. Low clouds.


Feels Like: 24 °F
Forecast: 24 / 35 °F
Wind: 9 mph from South

Location: Rygge

Current Time: Feb 22, 2017 at 7:37:57 am

Latest Report: Feb 22, 2017 at 6:50 am


Visibility: N/A

Pressure: 28.80 "Hg

Humidity: 100%

Dew Point: 32 °F

Location of SarpsborgLocation

Past Weather in Sarpsborg — Graph

°F

Sarpsborg Temperature Yesterday

Maximum temperature yesterday: 43 °F (at 12:20 am)
Minimum temperature yesterday: 32 °F (at 6:50 pm)
Average temperature yesterday: 38 °F

High & Low Weather Summary for the Past Weeks

 TemperatureHumidityPressure
High46 °F (Feb 20, 6:50 pm)100% (Feb 11, 10:50 pm)30.86 "Hg (Feb 11, 10:50 pm)
Low12 °F (Feb 12, 8:20 am)53% (Feb 21, 9:20 am)28.82 "Hg (Feb 22, 6:20 am)
Average28 °F86%30.27 "Hg
* Reported Feb 7 6:20 am — Feb 22 6:20 am, Sarpsborg, Weather by CustomWeather, © 2017

Note: Actual official high and low records may vary slightly from our data, if they occured in-between our weather recording intervals... More about our weather records

Advertising

Sarpsborg Weather History for the Previous 24 Hours

Scroll right to see more
 ConditionsComfort  
Time TempWeatherWind HumidityBarometerVisibility
6:20 am
Wed, Feb 22
32 °FLight snow. Low clouds.12 mph100%28.82 "Hg1 mi
5:50 am32 °FLight snow. Mostly cloudy.12 mph100%28.85 "Hg1 mi
5:20 am32 °FLight snow. Low clouds.10 mph100%28.88 "Hg1 mi
4:50 am32 °FLight snow. Mostly cloudy.13 mph100%28.91 "Hg1 mi
4:20 am32 °FLight snow. Mostly cloudy.15 mph100%28.97 "Hg1 mi
3:50 am32 °FLight snow. Low clouds.13 mph100%29.00 "Hg1 mi
3:20 am32 °FLight snow. Low clouds.12 mph100%29.06 "Hg2 mi
2:50 am34 °FLight snow. Low clouds.14 mph93%29.09 "Hg3 mi
2:20 am34 °FLight rain. Low clouds.15 mph93%29.15 "Hg4 mi
1:50 am36 °FLight rain. Low clouds.14 mph93%29.18 "Hg4 mi
1:20 am36 °FLight rain. Overcast.12 mph93%29.21 "Hg4 mi
12:50 am34 °FLight rain. Overcast.8 mph93%29.24 "Hg3 mi
12:20 am36 °FLight rain. Passing clouds.7 mph81%29.27 "HgN/A
11:50 pm
Tue, Feb 21
34 °FPartly cloudy.8 mph87%29.30 "HgN/A
11:20 pm34 °FPassing clouds.10 mph87%29.33 "HgN/A
10:50 pm32 °FPassing clouds.12 mph93%29.33 "HgN/A
10:20 pm32 °FPassing clouds.9 mph93%29.36 "HgN/A
9:50 pm32 °FPassing clouds.8 mph93%29.39 "HgN/A
9:20 pm32 °FPassing clouds.7 mph93%29.39 "HgN/A
8:50 pm34 °FChilly.7 mph87%29.42 "HgN/A
8:20 pm34 °FChilly.8 mph87%29.42 "HgN/A
7:50 pm34 °FClear.8 mph81%29.45 "Hg10 mi
7:20 pm34 °FClear.9 mph81%29.45 "Hg10 mi
6:50 pm32 °FClear.8 mph87%29.45 "Hg10 mi
6:20 pm34 °FClear.5 mph81%29.47 "Hg10 mi
5:50 pm36 °FClear.7 mph75%29.45 "Hg10 mi
5:20 pm36 °FSunny.7 mph75%29.45 "Hg10 mi
4:50 pm37 °FSunny.6 mph70%29.45 "Hg10 mi
4:20 pm39 °FSunny.7 mph70%29.45 "Hg10 mi
3:50 pm41 °FSunny.6 mph66%29.45 "Hg10 mi
3:20 pm41 °FPassing clouds.5 mph66%29.45 "HgN/A
2:20 pm41 °FSunny.6 mph66%29.42 "Hg10 mi
1:50 pm39 °FSunny.8 mph70%29.42 "Hg10 mi
1:20 pm41 °FPassing clouds.8 mph66%29.39 "HgN/A
12:50 pm41 °FPassing clouds.7 mph66%29.39 "HgN/A
12:20 pm39 °FPassing clouds.8 mph70%29.36 "HgN/A
11:50 am39 °FPassing clouds.9 mph75%29.36 "HgN/A
11:20 am39 °FSunny.13 mph70%29.33 "Hg10 mi
10:50 am39 °FSunny.12 mph70%29.30 "Hg10 mi
10:20 am41 °FPassing clouds.12 mph66%29.27 "HgN/A
9:50 am41 °FSunny.13 mph61%29.27 "Hg10 mi
9:20 am43 °FPassing clouds.5 mph53%29.24 "HgN/A
8:50 am39 °FSunny.7 mph65%29.21 "Hg10 mi
8:20 am39 °FSunny.7 mph65%29.18 "Hg10 mi
7:50 am39 °FPassing clouds.3 mph65%29.18 "HgN/A
7:20 am41 °FPassing clouds.3 mph61%29.18 "HgN/A
Weather by CustomWeather, © 2017

See weather overviewHow to use our weather pages